User: anonymous   Login
Location: Unspecified
(0.0000°N, 0.0000°E)
Time: 04:54:16
(UTC+00:00)
Language:

SICRAL 1B - Orbit

View from above orbital plane
View from above orbital plane
View from above satellite
View from above satellite

Ground track
Ground track

The orbit data is extracted from the following two-line orbital elements,

1 34810U 09020A   16195.42718961 0.00000000  00000-0  00000-0 0    00
2 34810   0.1133  97.2049 0004353  49.2553 310.7929  1.00270000    01
Epoch (UTC): 13 July 2016 10:15:09
Eccentricity: 0.0004353
inclination: 0.1133°
perigee height: 35768 km
apogee height: 35805 km
right ascension of ascending node: 97.2049°
argument of perigee: 49.2553°
revolutions per day: 1.00270000
mean anomaly at epoch: 310.7929°
orbit number at epoch: 0

The dashed part of the orbit path shows where the satellite is in the earth's shadow,  

DLR